Terminal Aerodrome Forecast
Issued by NWS

Home | Current Version | Previous Version | Text Only | Print | Product List | Glossary On
Versions: 1 2 3 4 5 6 7 8 9 10 11 12
000
FTUS45 KFGZ 191143
TAFPGA
TAF
KPGA 191143Z 1912/2012 VRB06KT P6SM FEW060 OVC110
     FM191600 23007KT P6SM VCSH OVC040
      TEMPO 1919/1923 4SM -SHRA OVC030
     FM192300 23010KT 5SM -SHRA OVC030=

USA.gov is the U.S. government's official web portal to all federal, state and local government web resources and services.